Weather History for KPPA - December, 2012

Change the Weather History Date:

Sunday, December 30, 2012

  Actual Average Record
Temperature  
Mean Temperature 32 °F -  
Max Temperature 37 °F 45 °F 72 °F (1965)
Min Temperature 26 °F 20 °F -1 °F (1983)
Degree Days  
Heating Degree Days 34    
Moisture  
Dew Point 15 °F    
Average Humidity 49    
Maximum Humidity 64    
Minimum Humidity 38    
Precipitation  
Precipitation 0.00 in - - ()
Sea Level Pressure  
Sea Level Pressure 30.11 in    
Wind  
Wind Speed 15 mph (South)    
Max Wind Speed 28 mph    
Max Gust Speed 33 mph    
Visibility 10 miles    
Events      
Averages and records for this station are not official NWS values.
T = Trace of Precipitation, MM = Missing Value Source: NWS Daily Summary

Daily Weather History Graph

Daily Weather History Graph

Search for Another Location

Airport or City:

Trip Planner

Search our weather history database for the weather conditions in past years. The results will help you decide how hot, cold, wet, or windy it might be!

Date:

Astronomy

Dec. 30, 2012 Rise Set
Actual Time 7:53 AM CST 5:40 PM CST
Civil Twilight 7:24 AM CST 6:08 PM CST
Nautical Twilight 6:53 AM CST 6:40 PM CST
Astronomical Twilight 6:22 AM CST 7:11 PM CST
Moon 8:08 PM CST (12/30) 9:08 AM CST (12/30)
Length of Visible Light 10h 43m
Length of Day
9h 47m
Waning Gibbous, 95% of the Moon is Illuminated
Dec 30
Waning Gibbous
Jan 4
Last Quarter
Jan 11
New
Jan 18
First Quarter
Jan 26
Full

Hourly Weather History & Observations

Time (CST) Temp. Windchill Dew Point Humidity Pressure Visibility Wind Dir Wind Speed Gust Speed Precip Events Conditions
12:15 AM 26.6 °F 15.2 °F 14.0 °F 59% 30.23 in 10.0 mi South 13.8 mph - N/A   Clear
12:35 AM 26.6 °F 14.7 °F 14.0 °F 59% 30.21 in 10.0 mi South 15.0 mph - N/A   Clear
12:55 AM 28.4 °F 17.5 °F 14.0 °F 55% 30.21 in 10.0 mi SSW 13.8 mph - N/A   Clear
1:15 AM 28.4 °F 18.0 °F 14.0 °F 55% 30.21 in 10.0 mi SSW 12.7 mph - N/A   Clear
1:35 AM 26.6 °F 17.5 °F 14.0 °F 59% 30.21 in 10.0 mi SSW 9.2 mph - N/A   Clear
1:55 AM 26.6 °F 16.2 °F 14.0 °F 59% 30.20 in 10.0 mi South 11.5 mph - N/A   Clear
2:15 AM 26.6 °F 16.2 °F 14.0 °F 59% 30.21 in 10.0 mi South 11.5 mph - N/A   Clear
2:35 AM 26.6 °F 16.8 °F 14.0 °F 59% 30.21 in 10.0 mi South 10.4 mph - N/A   Clear
2:55 AM 26.6 °F 16.2 °F 14.0 °F 59% 30.19 in 10.0 mi South 11.5 mph - N/A   Clear
3:15 AM 28.4 °F 16.2 °F 15.8 °F 59% 30.19 in 10.0 mi South 17.3 mph - N/A   Clear
3:35 AM 32.0 °F 20.8 °F 14.0 °F 48% 30.18 in 10.0 mi South 17.3 mph - N/A   Clear
3:55 AM 32.0 °F 22.1 °F 14.0 °F 48% 30.18 in 10.0 mi South 13.8 mph - N/A   Clear
4:15 AM 30.2 °F 19.3 °F 14.0 °F 51% 30.18 in 10.0 mi South 15.0 mph - N/A   Clear
4:35 AM 30.2 °F 19.3 °F 14.0 °F 51% 30.17 in 10.0 mi South 15.0 mph - N/A   Clear
4:55 AM 30.2 °F 18.1 °F 14.0 °F 51% 30.17 in 10.0 mi SSW 18.4 mph - N/A   Clear
5:15 AM 30.2 °F 18.9 °F 14.0 °F 51% 30.16 in 10.0 mi SSW 16.1 mph - N/A   Clear
5:35 AM 30.2 °F 19.3 °F 14.0 °F 51% 30.17 in 10.0 mi SSW 15.0 mph - N/A   Clear
5:55 AM 30.2 °F 19.8 °F 14.0 °F 51% 30.16 in 10.0 mi SSW 13.8 mph - N/A   Clear
6:15 AM 28.4 °F 19.7 °F 14.0 °F 55% 30.17 in 10.0 mi SSW 9.2 mph - N/A   Clear
6:35 AM 28.4 °F 19.1 °F 14.0 °F 55% 30.17 in 10.0 mi SSW 10.4 mph - N/A   Clear
6:55 AM 26.6 °F 16.2 °F 14.0 °F 59% 30.17 in 10.0 mi South 11.5 mph - N/A   Clear
7:15 AM 26.6 °F 15.7 °F 14.0 °F 59% 30.17 in 10.0 mi South 12.7 mph - N/A   Clear
7:35 AM 26.6 °F 15.2 °F 14.0 °F 59% 30.16 in 10.0 mi South 13.8 mph - N/A   Clear
8:15 AM 28.4 °F 16.6 °F 14.0 °F 55% 30.16 in 10.0 mi South 16.1 mph - N/A   Clear
8:35 AM 28.4 °F 17.5 °F 14.0 °F 55% 30.16 in 10.0 mi South 13.8 mph - N/A   Clear
9:15 AM 32.0 °F 21.2 °F 15.8 °F 51% 30.18 in 10.0 mi South 16.1 mph 19.6 mph N/A   Clear
9:35 AM 32.0 °F 23.6 °F 15.8 °F 51% 30.18 in 10.0 mi SSW 10.4 mph - N/A   Clear
9:55 AM 32.0 °F 21.6 °F 15.8 °F 51% 30.18 in 10.0 mi South 15.0 mph 19.6 mph N/A   Clear
10:15 AM 33.8 °F 23.2 °F 14.0 °F 44% 30.19 in 10.0 mi SSW 17.3 mph 21.9 mph N/A   Clear
10:55 AM 35.6 °F 24.5 °F 14.0 °F 41% 30.17 in 10.0 mi South 20.7 mph 24.2 mph N/A   Clear
11:15 AM 37.4 °F 26.6 °F 14.0 °F 38% 30.16 in 10.0 mi SSW 21.9 mph - N/A   Clear
11:35 AM 37.4 °F 26.6 °F 14.0 °F 38% 30.15 in 10.0 mi SSW 21.9 mph 26.5 mph N/A   Clear
12:15 PM 37.4 °F 25.9 °F 14.0 °F 38% 30.11 in 10.0 mi South 25.3 mph 32.2 mph N/A   Clear
1:15 PM 37.4 °F 25.4 °F 14.0 °F 38% 30.07 in 10.0 mi SSW 27.6 mph 33.4 mph N/A   Mostly Cloudy
1:35 PM 37.4 °F 26.9 °F 14.0 °F 38% 30.06 in 10.0 mi South 20.7 mph 29.9 mph N/A   Scattered Clouds
1:55 PM 37.4 °F 26.6 °F 14.0 °F 38% 30.05 in 10.0 mi South 21.9 mph 29.9 mph N/A   Scattered Clouds
2:15 PM 37.4 °F 26.6 °F 14.0 °F 38% 30.05 in 10.0 mi SSW 21.9 mph 29.9 mph N/A   Clear
2:35 PM 37.4 °F 25.6 °F 14.0 °F 38% 30.02 in 10.0 mi South 26.5 mph 31.1 mph N/A   Clear
3:15 PM 37.4 °F 26.9 °F 14.0 °F 38% 30.03 in 10.0 mi SSW 20.7 mph 26.5 mph N/A   Scattered Clouds
3:35 PM 37.4 °F 26.6 °F 14.0 °F 38% 30.03 in 10.0 mi South 21.9 mph 26.5 mph N/A   Clear
4:15 PM 37.4 °F 27.8 °F 14.0 °F 38% 30.02 in 10.0 mi SSW 17.3 mph 21.9 mph N/A   Clear
4:35 PM 37.4 °F 27.5 °F 14.0 °F 38% 30.01 in 10.0 mi SSW 18.4 mph 23.0 mph N/A   Clear
5:15 PM 35.6 °F 27.5 °F 15.8 °F 44% 30.02 in 10.0 mi South 11.5 mph - N/A   Clear
5:35 PM 35.6 °F 26.2 °F 15.8 °F 44% 30.00 in 10.0 mi South 15.0 mph - N/A   Clear
5:55 PM 33.8 °F 23.9 °F 15.8 °F 48% 30.01 in 10.0 mi South 15.0 mph - N/A   Clear
6:15 PM 33.8 °F 25.3 °F 15.8 °F 48% 30.03 in 10.0 mi South 11.5 mph - N/A   Clear
6:35 PM 33.8 °F 24.3 °F 15.8 °F 48% 30.01 in 10.0 mi South 13.8 mph - N/A   Scattered Clouds
6:55 PM 33.8 °F 25.3 °F 15.8 °F 48% 30.02 in 10.0 mi South 11.5 mph - N/A   Scattered Clouds
7:35 PM 33.8 °F 25.8 °F 15.8 °F 48% 30.03 in 10.0 mi South 10.4 mph - N/A   Clear
8:15 PM 32.0 °F 22.1 °F 14.0 °F 48% 30.01 in 10.0 mi South 13.8 mph - N/A   Clear
8:35 PM 32.0 °F 20.8 °F 14.0 °F 48% 30.01 in 10.0 mi South 17.3 mph - N/A   Clear
8:55 PM 32.0 °F 21.6 °F 14.0 °F 48% 30.01 in 10.0 mi South 15.0 mph 20.7 mph N/A   Clear
9:15 PM 32.0 °F 20.8 °F 15.8 °F 51% 30.01 in 10.0 mi South 17.3 mph - N/A   Clear
9:35 PM 32.0 °F 21.2 °F 15.8 °F 51% 30.01 in 10.0 mi South 16.1 mph - N/A   Scattered Clouds
9:55 PM 33.8 °F 23.2 °F 15.8 °F 48% 30.01 in 10.0 mi South 17.3 mph 21.9 mph N/A   Overcast
10:15 PM 33.8 °F 23.2 °F 15.8 °F 48% 30.00 in 10.0 mi South 17.3 mph 23.0 mph N/A   Overcast
10:35 PM 33.8 °F 22.2 °F 17.6 °F 52% 30.00 in 10.0 mi South 20.7 mph - N/A   Overcast
10:55 PM 33.8 °F 22.8 °F 17.6 °F 52% 30.00 in 10.0 mi South 18.4 mph - N/A   Overcast
11:15 PM 33.8 °F 24.3 °F 17.6 °F 52% 30.01 in 10.0 mi South 13.8 mph 21.9 mph N/A   Overcast
11:35 PM 32.0 °F 22.5 °F 21.2 °F 64% 30.01 in 7.0 mi South 12.7 mph - N/A   Drizzle